ICT,Max TemperatureF,Mean TemperatureF,Min TemperatureF,Max Dew PointF,MeanDew PointF,Min DewpointF,Max Humidity, Mean Humidity, Min Humidity, Max Sea Level PressureIn, Mean Sea Level PressureIn, Min Sea Level PressureIn, Max VisibilityMiles, Mean VisibilityMiles, Min VisibilityMiles, Max Wind SpeedMPH, Mean Wind SpeedMPH, Max Gust SpeedMPH,PrecipitationIn, CloudCover, Events, WindDirDegrees
2013-10-1,82,80,77,77,74,72,94,82,70,29.77,29.72,29.68,6,6,4,8,4,,0.00,6,Rain,347
2013-10-2,87,82,77,77,75,75,94,80,66,29.89,29.83,29.74,6,6,5,8,5,,0.00,5,Rain,348
2013-10-3,86,82,77,77,75,73,94,84,70,29.92,29.85,29.74,6,5,4,8,4,,0.00,6,Rain,337
2013-10-4,91,84,77,77,76,73,94,73,55,29.89,29.79,29.71,6,6,5,8,4,,0.00,4,,331
2013-10-5,91,84,77,77,75,72,94,72,52,29.80,29.73,29.65,6,6,5,7,4,,0.00,4,,188
2013-10-6,93,86,78,77,75,70,94,70,49,29.83,29.75,29.68,6,6,5,7,5,,0.00,4,,70
2013-10-7,91,83,75,73,71,70,94,64,49,29.83,29.77,29.71,4,4,3,7,4,,0.00,3,,18
2013-10-8,89,83,77,75,75,73,94,72,62,29.86,29.80,29.74,6,4,3,8,4,,0.00,3,,249
2013-10-9,89,81,73,77,71,68,94,67,49,29.89,29.83,29.77,4,3,2,7,4,,0.00,3,,84
2013-10-10,91,84,77,75,73,72,89,68,52,29.92,29.86,29.80,4,4,3,7,4,,0.00,3,,6
2013-10-11,91,84,77,79,72,68,94,66,49,29.92,29.83,29.74,5,4,3,8,2,,0.00,3,,340
2013-10-12,93,84,75,75,73,70,94,68,46,29.86,29.80,29.71,6,5,3,7,4,,0.00,1,,49
2013-10-13,93,85,77,79,73,70,89,66,46,29.86,29.77,29.71,6,4,4,9,5,,0.00,2,,2
2013-10-14,98,88,77,77,74,70,94,68,42,29.83,29.74,29.68,5,4,3,10,5,,0.00,3,,359
2013-10-15,91,84,77,79,74,70,94,67,52,29.80,29.72,29.65,5,5,4,9,4,,0.00,3,,343
2013-10-16,87,82,78,75,74,72,89,74,62,29.77,29.71,29.65,4,4,3,8,6,,0.00,6,Rain,10
2013-10-17,78,76,73,77,74,72,94,93,89,29.86,29.81,29.77,4,2,1,7,5,,0.00,8,Rain,137
2013-10-18,89,83,77,75,75,73,94,77,62,29.95,29.85,29.62,5,4,3,6,4,,0.00,6,Rain,56
2013-10-19,89,83,77,77,75,73,94,78,62,29.98,29.91,29.86,6,5,4,7,4,,0.00,6,Thunderstorm,343
2013-10-20,89,83,77,77,75,73,100,74,59,29.98,29.87,29.80,6,5,4,7,4,,0.00,6,Thunderstorm,90
2013-10-21,91,84,77,77,74,72,94,70,52,29.92,29.85,29.77,6,5,4,6,5,,0.00,2,,77
2013-10-22,89,83,77,75,74,73,89,71,59,29.95,29.89,29.83,6,6,4,6,4,,0.00,3,,353
2013-10-23,89,82,75,77,73,70,94,71,52,29.98,29.88,29.80,5,5,4,8,3,,0.00,3,,272
2013-10-24,86,82,77,75,75,73,94,80,66,29.95,29.87,29.77,5,4,4,6,4,,0.00,5,,29
2013-10-25,77,75,73,75,72,72,94,94,94,29.98,29.92,29.89,3,2,1,9,5,,0.00,7,Rain,347
2013-10-26,86,80,73,73,72,72,94,78,62,30.04,29.95,29.89,6,5,4,6,4,,0.00,6,,323
2013-10-27,86,78,71,75,68,64,94,69,48,29.98,29.91,29.86,5,4,3,7,3,,0.00,3,,66
2013-10-28,87,80,73,72,68,37,94,64,21,29.98,29.91,29.86,4,4,3,7,4,,0.00,3,,156
2013-10-29,87,80,73,81,74,72,94,76,58,30.01,29.93,29.86,4,3,2,7,4,,0.00,4,,159
2013-10-30,91,83,75,75,74,73,94,73,55,29.98,29.90,29.83,4,4,2,6,4,,0.00,4,,28
2013-10-31,91,84,77,77,75,72,94,72,52,29.98,29.89,29.80,4,3,2,6,3,,0.00,3,,102